Wind_Speed
29 31 34 36 36 36 34 30 28 29 28 27 27 25 24 24 22 22 21 19 18 19 20 22 24 27 31 33 36 39 39 38 35 33 29 28 29 30 31 32 32 32 33
32 35 36 36 36 35 30 27 28 29 27 26 25 23 21 19 19 18 16 14 13 14 15 17 21 24 28 31 35 38 40 40 38 36 33 30 29 30 30 33 35 35 37
36 37 37 37 36 32 30 29 29 28 25 24 24 21 18 16 16 17 16 15 14 15 16 17 20 24 27 31 34 37 38 39 39 39 38 34 31 31 30 31 34 35 35
38 38 37 35 33 30 30 31 30 28 26 25 23 21 20 19 20 21 21 20 19 18 18 19 21 24 27 31 34 36 38 39 39 39 39 37 34 33 32 31 31 32 33
38 35 32 31 30 31 33 33 30 28 26 26 26 26 25 26 26 27 28 27 25 22 20 21 23 25 29 32 32 33 35 37 37 38 38 38 37 35 33 31 31 32 33
31 30 29 28 29 32 33 31 29 28 26 27 28 29 29 30 31 32 33 32 29 24 21 22 24 26 29 32 33 32 32 33 34 35 36 38 38 37 35 33 33 33 34
27 28 26 27 30 32 31 30 30 30 30 30 31 31 32 32 31 31 31 30 28 25 22 23 25 27 29 32 34 34 32 31 31 32 34 36 38 39 37 35 34 35 35
26 28 30 30 30 31 31 32 32 33 34 34 34 34 34 33 31 30 29 29 28 27 24 24 25 26 28 31 34 35 33 31 30 30 32 35 36 38 38 37 35 36 35
29 31 33 34 33 33 34 35 36 37 38 38 38 37 36 34 33 32 30 29 28 26 24 24 25 25 27 30 33 34 32 30 30 29 30 33 35 36 37 37 35 35 34
34 36 37 39 41 42 43 43 43 44 45 45 44 42 41 38 36 36 35 33 29 27 25 24 24 25 27 29 31 34 33 30 28 27 28 29 32 33 34 35 35 35 34
40 42 44 44 45 47 49 49 49 49 50 51 50 49 48 46 42 40 38 35 31 29 29 28 27 27 28 30 30 33 33 31 29 27 26 27 27 29 31 33 34 35 35
42 44 47 48 50 51 53 55 56 56 56 56 56 56 55 53 49 46 44 40 36 34 35 35 33 31 31 31 30 31 33 32 29 26 25 24 25 26 28 30 32 33 34
45 47 49 51 53 55 56 59 61 62 62 61 61 61 59 57 55 52 49 45 42 40 39 39 37 34 32 31 30 31 32 31 29 26 24 21 20 21 23 25 27 29 31
46 48 51 53 56 58 60 62 67 70 70 69 67 66 65 63 62 60 56 49 45 44 44 43 40 36 34 32 30 30 31 30 28 25 22 19 16 16 17 18 20 24 28
51 54 56 58 60 65 69 70 72 73 72 73 75 75 75 75 72 67 61 56 55 52 50 47 43 40 38 35 32 30 30 29 27 24 21 17 13 12 13 14 15 19 23
62 64 66 68 68 70 74 77 77 76 75 75 75 72 72 72 70 69 69 70 68 63 56 49 45 43 42 38 35 32 30 29 27 24 21 18 14 12 12 13 14 16 17
73 75 76 77 77 78 79 81 84 87 89 89 86 83 80 78 79 80 80 81 77 69 61 53 48 46 43 41 38 34 31 30 28 25 22 19 15 14 13 14 16 19 21
82 83 82 80 78 75 72 71 71 72 74 76 78 81 84 86 86 86 84 81 76 69 64 58 51 47 45 44 41 38 34 31 29 26 23 19 16 14 15 16 18 20 24
79 74 68 62 55 48 43 40 40 42 44 46 49 52 56 61 66 69 70 69 68 65 61 58 52 49 48 46 43 40 37 34 32 28 24 21 17 14 15 17 18 20 22
57 50 42 37 34 34 36 38 40 40 39 39 40 39 38 38 42 46 51 55 57 57 56 53 49 48 47 46 43 41 39 36 33 30 26 23 19 16 16 17 18 20 22
35 32 32 34 37 41 44 46 46 45 44 44 43 41 37 34 34 36 39 44 49 53 54 52 49 46 45 45 43 42 39 36 33 31 28 24 21 19 19 20 20 21 22
33 36 39 43 46 48 49 49 49 49 49 48 46 44 39 34 32 31 30 31 34 40 47 52 55 51 45 45 45 42 39 36 33 31 29 25 23 23 22 23 24 24 24
41 45 47 49 50 51 52 51 51 52 53 52 50 47 44 38 33 29 26 25 26 27 33 44 55 54 49 48 48 44 39 35 32 30 28 25 24 24 24 26 26 25 23
46 49 50 50 49 50 51 53 54 55 56 55 52 49 46 43 37 32 28 26 26 27 28 34 47 57 51 48 48 44 40 35 31 29 27 25 24 24 25 25 24 22 19
51 53 53 51 50 49 50 51 53 55 54 51 48 46 45 43 40 36 31 29 30 30 31 33 40 50 50 44 44 40 37 32 30 28 26 24 24 24 23 23 20 18 19
55 54 53 53 51 50 50 50 51 51 49 45 41 40 40 42 41 37 34 32 31 33 32 32 34 40 43 42 41 38 35 31 29 27 26 25 25 24 23 21 19 20 19
Wind_Direction
270 275 281 287 292 295 293 288 285 284 283 284 286 287 285 284 284 282 281 282 286 290 294 296 297 296 294 291 287 284 282 280 278 275 273 272 270 265 261 256 252 250 249
271 276 283 288 293 293 289 284 285 288 287 286 286 284 281 277 272 270 272 279 288 295 299 301 303 303 301 295 288 283 278 275 272 271 269 268 269 268 264 259 254 252 251
277 281 284 288 290 289 285 283 287 288 285 283 284 281 279 275 272 272 274 276 287 296 301 309 314 316 314 308 298 288 281 275 270 268 267 265 265 266 264 261 257 253 252
278 279 282 284 286 285 286 288 290 288 283 283 286 286 285 282 279 278 275 276 284 293 299 308 318 323 324 320 308 295 286 279 273 269 267 265 262 263 264 262 257 253 253
273 274 275 278 281 284 289 291 292 288 283 284 287 287 286 283 280 278 278 279 283 288 297 306 315 324 328 326 318 303 291 284 278 271 267 265 262 261 260 260 258 256 255
266 265 269 276 281 285 288 290 291 290 287 286 287 287 287 286 284 283 282 282 282 285 295 303 311 321 327 329 325 313 298 288 282 274 268 264 262 260 259 257 257 258 258
267 265 271 278 281 282 283 286 289 290 288 287 285 286 287 286 284 282 279 278 278 281 290 303 309 317 326 330 328 320 307 296 287 277 268 263 261 259 259 257 255 256 258
276 276 278 279 281 282 284 286 288 289 289 286 284 284 285 284 282 279 276 275 278 283 292 303 309 313 320 326 328 323 314 304 294 283 271 263 260 259 258 257 256 257 261
281 280 281 280 278 278 279 281 283 284 284 282 281 281 282 283 282 279 276 277 282 288 296 303 306 310 316 321 324 323 318 311 300 289 276 267 261 260 258 257 257 258 260
281 280 280 278 277 276 277 278 279 280 281 281 281 281 280 279 280 279 277 277 281 287 295 300 302 306 311 317 321 322 318 314 308 297 285 274 265 260 258 257 256 257 258
281 280 279 278 276 275 276 277 276 276 277 279 280 281 282 281 280 280 277 275 278 287 293 296 295 299 305 311 316 319 318 314 311 303 291 278 268 260 257 258 258 257 256
277 276 276 276 275 274 274 274 274 273 272 273 275 277 279 280 279 278 276 272 275 286 295 297 295 294 298 305 310 314 315 314 312 307 298 285 272 263 259 259 259 258 256
283 281 279 278 277 277 276 276 275 272 270 270 270 272 274 275 275 275 274 271 273 281 291 294 293 291 294 301 305 308 310 311 311 309 305 294 278 265 260 259 256 252 247
287 287 286 284 283 282 282 282 280 274 270 268 268 269 271 272 271 271 269 268 272 278 286 290 289 288 292 297 301 303 304 305 306 306 306 300 286 270 262 259 254 247 242
293 291 290 289 287 282 278 277 275 268 263 260 260 261 264 266 264 261 261 266 275 279 281 283 283 284 288 291 294 296 297 297 298 300 302 300 290 278 272 262 253 242 235
294 291 288 285 282 279 275 271 268 264 267 271 267 261 259 258 256 255 259 269 276 277 277 277 277 278 281 283 285 286 287 288 288 290 294 296 291 279 271 261 249 239 229
294 291 289 286 284 281 278 276 273 271 272 273 272 268 264 261 261 262 264 269 272 273 272 271 271 271 272 275 276 277 277 278 278 280 284 285 283 272 262 255 246 241 235
294 292 291 291 290 289 288 286 284 283 282 281 279 276 272 269 267 266 266 267 268 268 267 265 264 263 264 266 267 268 268 267 266 268 271 274 270 264 258 253 248 244 236
299 299 298 298 297 296 295 296 298 297 296 294 290 286 281 276 271 267 265 264 262 261 259 258 256 255 256 257 258 259 259 258 257 257 260 263 258 255 252 248 243 238 232
304 303 301 300 300 301 302 302 303 301 299 298 298 298 297 291 281 271 260 252 248 247 246 245 243 244 246 247 248 250 250 250 249 249 250 253 250 242 237 234 231 230 226
311 309 307 304 302 301 300 300 298 296 293 291 290 290 293 293 287 279 266 254 244 238 232 227 224 227 233 236 238 240 240 241 242 243 244 245 244 236 228 224 226 227 224
312 309 307 304 303 302 300 298 295 292 288 286 285 283 283 284 284 280 269 254 245 239 231 220 211 210 216 227 231 232 232 233 236 238 238 239 238 233 226 221 225 226 218
313 311 308 306 304 302 300 297 295 292 288 284 280 276 273 272 273 272 264 249 239 236 230 221 212 205 205 215 223 224 224 225 230 233 232 232 233 228 222 218 220 216 204
317 314 311 308 304 301 298 297 296 295 292 286 280 273 266 261 259 260 256 245 237 233 227 221 215 208 204 208 212 215 217 220 225 226 225 225 225 220 215 212 203 192 187
320 318 316 312 308 304 300 299 299 299 296 290 279 270 259 251 248 248 249 243 236 231 226 222 218 216 208 204 204 205 209 213 215 216 217 217 216 210 201 191 181 181 184
322 320 319 315 311 307 304 302 302 302 299 291 280 266 252 241 237 238 239 238 234 228 224 222 220 218 210 200 198 199 201 203 207 208 208 205 204 197 188 182 182 184 187
Height
5878 5876 5874 5871 5868 5864 5859 5855 5852 5849 5847 5846 5844 5843 5842 5840 5839 5837 5836 5835 5833 5831 5830 5827 5825 5822 5820 5817 5814 5812 5810 5809 5808 5808 5809 5810 5810 5811 5811 5811 5811 5812 5813
5872 5870 5867 5864 5860 5856 5852 5849 5846 5844 5842 5840 5838 5837 5836 5835 5833 5832 5830 5829 5827 5826 5823 5821 5819 5816 5812 5810 5807 5804 5802 5801 5800 5800 5800 5802 5803 5803 5803 5802 5803 5804 5804
5864 5861 5858 5855 5852 5848 5845 5843 5841 5838 5836 5834 5832 5830 5829 5828 5828 5827 5825 5824 5822 5820 5818 5815 5813 5809 5806 5802 5799 5795 5793 5793 5792 5791 5792 5793 5795 5794 5794 5794 5795 5796 5797
5854 5851 5849 5846 5843 5841 5839 5837 5834 5832 5830 5827 5825 5824 5823 5823 5822 5821 5819 5818 5816 5814 5811 5809 5807 5804 5800 5796 5791 5787 5784 5782 5782 5782 5782 5784 5785 5786 5786 5787 5788 5788 5789
5844 5842 5839 5837 5835 5833 5831 5829 5827 5824 5823 5822 5820 5819 5818 5817 5816 5814 5813 5811 5809 5807 5804 5802 5799 5796 5793 5788 5783 5778 5775 5772 5771 5771 5772 5773 5774 5775 5777 5778 5780 5781 5782
5835 5832 5831 5830 5829 5826 5824 5822 5819 5818 5817 5816 5814 5813 5811 5810 5809 5807 5805 5804 5802 5800 5797 5795 5792 5788 5785 5780 5775 5770 5767 5764 5762 5761 5761 5762 5764 5766 5767 5770 5772 5772 5773
5829 5825 5824 5824 5822 5819 5817 5815 5813 5811 5810 5809 5808 5807 5805 5803 5801 5800 5798 5796 5795 5793 5790 5787 5784 5780 5776 5772 5768 5763 5759 5756 5754 5752 5752 5752 5754 5756 5758 5760 5763 5764 5764
5825 5822 5819 5817 5815 5813 5811 5809 5807 5805 5802 5801 5800 5799 5797 5794 5793 5791 5790 5788 5787 5784 5782 5779 5775 5772 5769 5766 5761 5757 5752 5749 5746 5744 5743 5742 5744 5746 5749 5751 5753 5755 5756
5819 5816 5813 5810 5808 5805 5803 5800 5798 5796 5794 5791 5790 5789 5787 5785 5783 5782 5780 5779 5777 5774 5772 5769 5767 5764 5762 5759 5755 5750 5746 5742 5739 5736 5734 5733 5734 5736 5739 5741 5744 5746 5747
5811 5808 5805 5801 5798 5795 5793 5790 5788 5785 5783 5780 5779 5778 5776 5775 5774 5772 5771 5769 5767 5765 5762 5760 5758 5756 5754 5751 5747 5743 5739 5736 5732 5729 5726 5724 5724 5725 5728 5731 5734 5736 5738
5801 5797 5793 5790 5787 5784 5780 5778 5775 5772 5769 5767 5765 5763 5763 5763 5762 5761 5759 5757 5755 5754 5752 5750 5748 5747 5745 5743 5740 5737 5733 5729 5725 5722 5719 5716 5715 5716 5718 5721 5723 5726 5728
5790 5785 5781 5777 5773 5770 5766 5763 5760 5757 5754 5751 5749 5747 5746 5746 5747 5746 5745 5744 5742 5741 5741 5740 5739 5737 5736 5734 5732 5729 5727 5723 5719 5715 5712 5709 5707 5707 5708 5711 5714 5716 5718
5776 5771 5767 5762 5758 5754 5750 5746 5743 5739 5736 5732 5730 5728 5727 5727 5728 5729 5730 5729 5729 5729 5729 5729 5729 5728 5727 5725 5723 5722 5720 5717 5713 5709 5705 5702 5700 5700 5701 5703 5705 5706 5708
5761 5756 5750 5745 5740 5735 5730 5726 5721 5717 5714 5711 5709 5708 5707 5707 5709 5711 5713 5713 5714 5715 5716 5717 5718 5718 5717 5716 5714 5714 5713 5710 5707 5703 5700 5697 5695 5695 5695 5697 5697 5698 5698
5745 5739 5733 5727 5721 5716 5710 5705 5700 5695 5691 5690 5689 5687 5686 5686 5687 5689 5692 5694 5697 5699 5701 5703 5705 5706 5706 5706 5705 5705 5705 5704 5702 5698 5695 5692 5691 5690 5691 5692 5692 5693 5693
5727 5720 5713 5706 5701 5695 5689 5684 5679 5675 5672 5670 5668 5666 5665 5664 5665 5666 5669 5673 5678 5682 5685 5688 5691 5693 5695 5695 5695 5695 5696 5696 5695 5693 5690 5688 5686 5686 5687 5688 5689 5690 5691
5704 5694 5686 5679 5673 5667 5662 5657 5653 5649 5645 5642 5642 5641 5641 5642 5644 5645 5647 5651 5655 5661 5666 5671 5675 5678 5681 5683 5684 5684 5686 5687 5688 5686 5684 5683 5682 5681 5682 5684 5685 5687 5688
5676 5666 5657 5650 5644 5639 5634 5629 5626 5620 5616 5612 5610 5610 5610 5612 5614 5617 5620 5625 5632 5638 5645 5652 5658 5662 5666 5669 5672 5673 5674 5677 5679 5680 5678 5677 5676 5676 5677 5679 5681 5683 5684
5648 5639 5631 5625 5620 5615 5611 5608 5605 5600 5595 5591 5588 5586 5584 5584 5585 5588 5592 5597 5605 5613 5621 5630 5638 5645 5649 5654 5658 5661 5663 5666 5670 5671 5671 5671 5671 5671 5672 5674 5676 5678 5680
5627 5619 5614 5609 5605 5601 5598 5595 5592 5588 5584 5579 5576 5573 5569 5567 5565 5564 5566 5569 5576 5586 5596 5607 5618 5626 5632 5637 5642 5647 5651 5655 5659 5662 5663 5664 5666 5667 5667 5669 5672 5674 5676
5614 5609 5604 5599 5595 5590 5586 5581 5578 5574 5570 5566 5563 5561 5558 5555 5552 5550 5549 5550 5554 5561 5571 5584 5597 5609 5616 5621 5627 5634 5639 5644 5648 5651 5654 5656 5659 5661 5662 5665 5667 5670 5672
5607 5601 5595 5590 5583 5576 5570 5566 5561 5557 5552 5549 5548 5547 5546 5544 5542 5539 5538 5538 5540 5545 5552 5563 5576 5589 5598 5607 5613 5620 5627 5633 5638 5642 5646 5649 5652 5655 5657 5659 5662 5665 5667
5597 5590 5583 5576 5569 5561 5554 5548 5543 5537 5533 5530 5529 5529 5529 5530 5530 5530 5530 5530 5532 5536 5541 5549 5559 5569 5581 5590 5598 5607 5615 5622 5629 5634 5638 5641 5645 5648 5650 5653 5656 5660 5663
5587 5578 5569 5561 5553 5545 5537 5530 5523 5517 5511 5507 5506 5507 5509 5513 5517 5519 5520 5523 5526 5529 5534 5540 5547 5556 5566 5576 5584 5595 5604 5613 5619 5625 5629 5634 5639 5642 5644 5647 5651 5656 5660
5574 5563 5553 5544 5536 5528 5520 5512 5503 5495 5488 5484 5482 5483 5487 5494 5501 5506 5510 5514 5518 5522 5527 5532 5538 5546 5556 5567 5576 5587 5597 5605 5611 5617 5622 5628 5633 5636 5640 5644 5648 5654 5659
5560 5549 5539 5529 5519 5511 5503 5494 5485 5476 5468 5463 5461 5462 5467 5475 5484 5492 5498 5504 5509 5514 5520 5526 5532 5540 5549 5560 5571 5581 5590 5598 5605 5611 5616 5622 5628 5633 5637 5641 5647 5652 5657